User: anonymous   Login
Location: Unspecified
(0.0000°N, 0.0000°E)
Time: 11:34:28
(UTC+00:00)
Language:

UWE-2 - Orbit

View from above orbital plane
View from above orbital plane
View from above satellite
View from above satellite

Ground track
Ground track

The orbit data is extracted from the following two-line orbital elements,

1 35934U 09051D   17264.87002823  .00000091  00000-0  31699-4 0  9991
2 35934  98.5049  43.7480 0005958 340.5827  19.5142 14.55686050424432
Epoch (UTC): 21 September 2017 20:52:50
Eccentricity: 0.0005958
inclination: 98.5049°
perigee height: 703 km
apogee height: 711 km
right ascension of ascending node: 43.7480°
argument of perigee: 340.5827°
revolutions per day: 14.55686050
mean anomaly at epoch: 19.5142°
orbit number at epoch: 42443

The dashed part of the orbit path shows where the satellite is in the earth's shadow,  

DLR